#Datum;Uhrzeit;WR;Pac;DaySum;Status;WR;Pac;DaySum;Status;Pdc1;Udc;Temp;WR;Pac;DaySum;Status;Pdc1;Udc;Temp;WR;Pac;DaySum;Status;Pdc1;Udc;Temp;WR;Pac;DaySum;Status;Pdc1;Pdc2;Udc1;Udc2;Temp;WR;Pac;DaySum;Status;Pdc1;Pdc2;Udc1;Udc2;Temp;WR;Pac;DaySum;Status;Pdc1;Udc;Temp;WR;Pac;DaySum;Status;Pdc1;Udc;Temp;WR;Pac;DaySum;Status;Pdc1;Udc;Temp
07.12.17;23:55:00;1;494;13876;0;2;0;10275;0;0;0;0;3;0;6472;0;0;0;0;4;0;6487;0;0;0;0;5;0;19623;0;0;0;0;0;0;6;0;15077;0;0;0;0;0;0;7;0;12882;0;0;0;0;8;0;12318;0;0;0;0;9;0;6340;0;0;0;0
07.12.17;23:50:00;1;521;13835;0;2;0;10275;0;0;0;0;3;0;6472;0;0;0;0;4;0;6487;0;0;0;0;5;0;19623;0;0;0;0;0;0;6;0;15077;0;0;0;0;0;0;7;0;12882;0;0;0;0;8;0;12318;0;0;0;0;9;0;6340;0;0;0;0
07.12.17;23:45:00;1;827;13791;0;2;0;10275;0;0;0;0;3;0;6472;0;0;0;0;4;0;6487;0;0;0;0;5;0;19623;0;0;0;0;0;0;6;0;15077;0;0;0;0;0;0;7;0;12882;0;0;0;0;8;0;12318;0;0;0;0;9;0;6340;0;0;0;0
07.12.17;23:40:00;1;575;13723;0;2;0;10275;0;0;0;0;3;0;6472;0;0;0;0;4;0;6487;0;0;0;0;5;0;19623;0;0;0;0;0;0;6;0;15077;0;0;0;0;0;0;7;0;12882;0;0;0;0;8;0;12318;0;0;0;0;9;0;6340;0;0;0;0
07.12.17;23:35:00;1;574;13676;0;2;0;10275;0;0;0;0;3;0;6472;0;0;0;0;4;0;6487;0;0;0;0;5;0;19623;0;0;0;0;0;0;6;0;15077;0;0;0;0;0;0;7;0;12882;0;0;0;0;8;0;12318;0;0;0;0;9;0;6340;0;0;0;0
07.12.17;23:30:00;1;1154;13627;0;2;0;10275;0;0;0;0;3;0;6472;0;0;0;0;4;0;6487;0;0;0;0;5;0;19623;0;0;0;0;0;0;6;0;15077;0;0;0;0;0;0;7;0;12882;0;0;0;0;8;0;12318;0;0;0;0;9;0;6340;0;0;0;0
07.12.17;23:25:00;1;520;13556;0;2;0;10275;0;0;0;0;3;0;6472;0;0;0;0;4;0;6487;0;0;0;0;5;0;19623;0;0;0;0;0;0;6;0;15077;0;0;0;0;0;0;7;0;12882;0;0;0;0;8;0;12318;0;0;0;0;9;0;6340;0;0;0;0
07.12.17;23:20:00;1;597;13512;0;2;0;10275;0;0;0;0;3;0;6472;0;0;0;0;4;0;6487;0;0;0;0;5;0;19623;0;0;0;0;0;0;6;0;15077;0;0;0;0;0;0;7;0;12882;0;0;0;0;8;0;12318;0;0;0;0;9;0;6340;0;0;0;0
07.12.17;23:15:00;1;476;13443;0;2;0;10275;0;0;0;0;3;0;6472;0;0;0;0;4;0;6487;0;0;0;0;5;0;19623;0;0;0;0;0;0;6;0;15077;0;0;0;0;0;0;7;0;12882;0;0;0;0;8;0;12318;0;0;0;0;9;0;6340;0;0;0;0
07.12.17;23:10:00;1;964;13404;0;2;0;10275;0;0;0;0;3;0;6472;0;0;0;0;4;0;6487;0;0;0;0;5;0;19623;0;0;0;0;0;0;6;0;15077;0;0;0;0;0;0;7;0;12882;0;0;0;0;8;0;12318;0;0;0;0;9;0;6340;0;0;0;0
07.12.17;23:05:00;1;467;13319;0;2;0;10275;0;0;0;0;3;0;6472;0;0;0;0;4;0;6487;0;0;0;0;5;0;19623;0;0;0;0;0;0;6;0;15077;0;0;0;0;0;0;7;0;12882;0;0;0;0;8;0;12318;0;0;0;0;9;0;6340;0;0;0;0
07.12.17;23:00:00;1;463;13255;0;2;0;10275;0;0;0;0;3;0;6472;0;0;0;0;4;0;6487;0;0;0;0;5;0;19623;0;0;0;0;0;0;6;0;15077;0;0;0;0;0;0;7;0;12882;0;0;0;0;8;0;12318;0;0;0;0;9;0;6340;0;0;0;0
07.12.17;22:55:00;1;467;13217;0;2;0;10275;0;0;0;0;3;0;6472;0;0;0;0;4;0;6487;0;0;0;0;5;0;19623;2;0;0;0;0;0;6;0;15077;2;0;0;0;0;0;7;0;12882;0;0;0;0;8;0;12318;0;0;0;0;9;0;6340;0;0;0;0
07.12.17;22:50:00;1;472;13178;0;2;0;10275;0;0;0;0;3;0;6472;0;0;0;0;4;0;6487;0;0;0;0;5;0;19623;2;0;0;0;0;0;6;0;15077;2;0;0;0;0;0;7;0;12882;0;0;0;0;8;0;12318;0;0;0;0;9;0;6340;0;0;0;0
07.12.17;22:45:00;1;462;13109;0;2;0;10275;0;0;0;0;3;0;6472;0;0;0;0;4;0;6487;0;0;0;0;5;0;19623;2;0;0;0;0;0;6;0;15077;2;0;0;0;0;0;7;0;12882;0;0;0;0;8;0;12318;0;0;0;0;9;0;6340;0;0;0;0
07.12.17;22:40:00;1;521;13070;0;2;0;10275;0;0;0;0;3;0;6472;0;0;0;0;4;0;6487;0;0;0;0;5;0;19623;2;0;0;0;0;0;6;0;15077;2;0;0;0;0;0;7;0;12882;0;0;0;0;8;0;12318;0;0;0;0;9;0;6340;0;0;0;0
07.12.17;22:35:00;1;854;13026;0;2;0;10275;0;0;0;0;3;0;6472;0;0;0;0;4;0;6487;0;0;0;0;5;0;19623;2;0;0;0;0;0;6;0;15077;2;0;0;0;0;0;7;0;12882;0;0;0;0;8;0;12318;0;0;0;0;9;0;6340;0;0;0;0
07.12.17;22:30:00;1;528;12959;0;2;0;10275;0;0;0;0;3;0;6472;0;0;0;0;4;0;6487;0;0;0;0;5;0;19623;2;0;0;0;0;0;6;0;15077;2;0;0;0;0;0;7;0;12882;0;0;0;0;8;0;12318;0;0;0;0;9;0;6340;0;0;0;0
07.12.17;22:25:00;1;461;12916;0;2;0;10275;0;0;0;0;3;0;6472;0;0;0;0;4;0;6487;0;0;0;0;5;0;19623;2;0;0;0;0;0;6;0;15077;2;0;0;0;0;0;7;0;12882;0;0;0;0;8;0;12318;0;0;0;0;9;0;6340;0;0;0;0
07.12.17;22:20:00;1;758;12877;0;2;0;10275;0;0;0;0;3;0;6472;0;0;0;0;4;0;6487;0;0;0;0;5;0;19623;2;0;0;0;0;0;6;0;15077;2;0;0;0;0;0;7;0;12882;0;0;0;0;8;0;12318;0;0;0;0;9;0;6340;0;0;0;0
07.12.17;22:15:00;1;495;12808;0;2;0;10275;0;0;0;0;3;0;6472;0;0;0;0;4;0;6487;0;0;0;0;5;0;19623;2;0;0;0;0;0;6;0;15077;2;0;0;0;0;0;7;0;12882;0;0;0;0;8;0;12318;0;0;0;0;9;0;6340;0;0;0;0
07.12.17;22:10:00;1;487;12767;0;2;0;10275;0;0;0;0;3;0;6472;0;0;0;0;4;0;6487;0;0;0;0;5;0;19623;2;0;0;0;0;0;6;0;15077;2;0;0;0;0;0;7;0;12882;0;0;0;0;8;0;12318;0;0;0;0;9;0;6340;0;0;0;0
07.12.17;22:05:00;1;834;12727;0;2;0;10275;0;0;0;0;3;0;6472;0;0;0;0;4;0;6487;0;0;0;0;5;0;19623;2;0;0;0;0;0;6;0;15077;2;0;0;0;0;0;7;0;12882;0;0;0;0;8;0;12318;0;0;0;0;9;0;6340;0;0;0;0
07.12.17;22:00:00;1;562;12663;0;2;0;10275;0;0;0;0;3;0;6472;0;0;0;0;4;0;6487;0;0;0;0;5;0;19623;2;0;0;0;0;0;6;0;15077;2;0;0;0;0;0;7;0;12882;0;0;0;0;8;0;12318;0;0;0;0;9;0;6340;0;0;0;0
07.12.17;21:55:00;1;836;12616;0;2;0;10275;0;0;0;0;3;0;6472;0;0;0;0;4;0;6487;0;0;0;0;5;0;19623;2;0;0;0;0;0;6;0;15077;2;0;0;0;0;0;7;0;12882;0;0;0;0;8;0;12318;0;0;0;0;9;0;6340;0;0;0;0
07.12.17;21:50:00;1;856;12546;0;2;0;10275;0;0;0;0;3;0;6472;0;0;0;0;4;0;6487;0;0;0;0;5;0;19623;2;0;0;0;0;0;6;0;15077;2;0;0;0;0;0;7;0;12882;0;0;0;0;8;0;12318;0;0;0;0;9;0;6340;0;0;0;0
07.12.17;21:45:00;1;1198;12466;0;2;0;10275;0;0;0;0;3;0;6472;0;0;0;0;4;0;6487;0;0;0;0;5;0;19623;2;0;0;0;0;0;6;0;15077;2;0;0;0;0;0;7;0;12882;0;0;0;0;8;0;12318;0;0;0;0;9;0;6340;0;0;0;0
07.12.17;21:40:00;1;896;12373;0;2;0;10275;0;0;0;0;3;0;6472;0;0;0;0;4;0;6487;0;0;0;0;5;0;19623;2;0;0;0;0;0;6;0;15077;2;0;0;0;0;0;7;0;12882;0;0;0;0;8;0;12318;0;0;0;0;9;0;6340;0;0;0;0
07.12.17;21:35:00;1;943;12298;0;2;0;10275;0;0;0;0;3;0;6472;0;0;0;0;4;0;6487;0;0;0;0;5;0;19623;2;0;0;0;0;0;6;0;15077;2;0;0;0;0;0;7;0;12882;0;0;0;0;8;0;12318;0;0;0;0;9;0;6340;0;0;0;0
07.12.17;21:30:00;1;899;12219;0;2;0;10275;0;0;0;0;3;0;6472;0;0;0;0;4;0;6487;0;0;0;0;5;0;19623;2;0;0;0;0;0;6;0;15077;2;0;0;0;0;0;7;0;12882;0;0;0;0;8;0;12318;0;0;0;0;9;0;6340;0;0;0;0
07.12.17;21:25:00;1;865;12119;0;2;0;10275;0;0;0;0;3;0;6472;0;0;0;0;4;0;6487;0;0;0;0;5;0;19623;2;0;0;0;0;0;6;0;15077;2;0;0;0;0;0;7;0;12882;0;0;0;0;8;0;12318;0;0;0;0;9;0;6340;0;0;0;0
07.12.17;21:20:00;1;863;12046;0;2;0;10275;0;0;0;0;3;0;6472;0;0;0;0;4;0;6487;0;0;0;0;5;0;19623;2;0;0;0;0;0;6;0;15077;2;0;0;0;0;0;7;0;12882;0;0;0;0;8;0;12318;0;0;0;0;9;0;6340;0;0;0;0
07.12.17;21:15:00;1;851;11974;0;2;0;10275;0;0;0;0;3;0;6472;0;0;0;0;4;0;6487;0;0;0;0;5;0;19623;2;0;0;0;0;0;6;0;15077;2;0;0;0;0;0;7;0;12882;0;0;0;0;8;0;12318;0;0;0;0;9;0;6340;0;0;0;0
07.12.17;21:10:00;1;1194;11902;0;2;0;10275;0;0;0;0;3;0;6472;0;0;0;0;4;0;6487;0;0;0;0;5;0;19623;2;0;0;0;0;0;6;0;15077;2;0;0;0;0;0;7;0;12882;0;0;0;0;8;0;12318;0;0;0;0;9;0;6340;0;0;0;0
07.12.17;21:05:00;1;831;11807;0;2;0;10275;0;0;0;0;3;0;6472;0;0;0;0;4;0;6487;0;0;0;0;5;0;19623;2;0;0;0;0;0;6;0;15077;2;0;0;0;0;0;7;0;12882;0;0;0;0;8;0;12318;0;0;0;0;9;0;6340;0;0;0;0
07.12.17;21:00:00;1;1427;11719;0;2;0;10275;0;0;0;0;3;0;6472;0;0;0;0;4;0;6487;0;0;0;0;5;0;19623;2;0;0;0;0;0;6;0;15077;2;0;0;0;0;0;7;0;12882;0;0;0;0;8;0;12318;0;0;0;0;9;0;6340;0;0;0;0
07.12.17;20:55:00;1;1172;11643;0;2;0;10275;0;0;0;0;3;0;6472;0;0;0;0;4;0;6487;0;0;0;0;5;0;19623;2;0;0;0;0;0;6;0;15077;2;0;0;0;0;0;7;0;12882;0;0;0;0;8;0;12318;0;0;0;0;9;0;6340;0;0;0;0
07.12.17;20:50:00;1;835;11550;0;2;0;10275;0;0;0;0;3;0;6472;0;0;0;0;4;0;6487;0;0;0;0;5;0;19623;2;0;0;0;0;0;6;0;15077;2;0;0;0;0;0;7;0;12882;0;0;0;0;8;0;12318;0;0;0;0;9;0;6340;0;0;0;0
07.12.17;20:45:00;1;846;11480;0;2;0;10275;0;0;0;0;3;0;6472;0;0;0;0;4;0;6487;0;0;0;0;5;0;19623;2;0;0;0;0;0;6;0;15077;2;0;0;0;0;0;7;0;12882;0;0;0;0;8;0;12318;0;0;0;0;9;0;6340;0;0;0;0
07.12.17;20:40:00;1;877;11385;0;2;0;10275;0;0;0;0;3;0;6472;0;0;0;0;4;0;6487;0;0;0;0;5;0;19623;2;0;0;0;0;0;6;0;15077;2;0;0;0;0;0;7;0;12882;0;0;0;0;8;0;12318;0;0;0;0;9;0;6340;0;0;0;0
07.12.17;20:35:00;1;1219;11290;0;2;0;10275;0;0;0;0;3;0;6472;0;0;0;0;4;0;6487;0;0;0;0;5;0;19623;2;0;0;0;0;0;6;0;15077;2;0;0;0;0;0;7;0;12882;0;0;0;0;8;0;12318;0;0;0;0;9;0;6340;0;0;0;0
07.12.17;20:30:00;1;888;11213;0;2;0;10275;0;0;0;0;3;0;6472;0;0;0;0;4;0;6487;0;0;0;0;5;0;19623;2;0;0;0;0;0;6;0;15077;2;0;0;0;0;0;7;0;12882;0;0;0;0;8;0;12318;0;0;0;0;9;0;6340;0;0;0;0
07.12.17;20:25:00;1;841;11112;0;2;0;10275;0;0;0;0;3;0;6472;0;0;0;0;4;0;6487;0;0;0;0;5;0;19623;2;0;0;0;0;0;6;0;15077;2;0;0;0;0;0;7;0;12882;0;0;0;0;8;0;12318;0;0;0;0;9;0;6340;0;0;0;0
07.12.17;20:20:00;1;1134;11042;0;2;0;10275;0;0;0;0;3;0;6472;0;0;0;0;4;0;6487;0;0;0;0;5;0;19623;2;0;0;0;0;0;6;0;15077;2;0;0;0;0;0;7;0;12882;0;0;0;0;8;0;12318;0;0;0;0;9;0;6340;0;0;0;0
07.12.17;20:15:00;1;1167;10950;0;2;0;10275;0;0;0;0;3;0;6472;0;0;0;0;4;0;6487;0;0;0;0;5;0;19623;2;0;0;0;0;0;6;0;15077;2;0;0;0;0;0;7;0;12882;0;0;0;0;8;0;12318;0;0;0;0;9;0;6340;0;0;0;0
07.12.17;20:10:00;1;837;10859;0;2;0;10275;0;0;0;0;3;0;6472;0;0;0;0;4;0;6487;0;0;0;0;5;0;19623;2;0;0;0;0;0;6;0;15077;2;0;0;0;0;0;7;0;12882;0;0;0;0;8;0;12318;0;0;0;0;9;0;6340;0;0;0;0
07.12.17;20:05:00;1;838;10789;0;2;0;10275;0;0;0;0;3;0;6472;0;0;0;0;4;0;6487;0;0;0;0;5;0;19623;2;0;0;0;0;0;6;0;15077;2;0;0;0;0;0;7;0;12882;0;0;0;0;8;0;12318;0;0;0;0;9;0;6340;0;0;0;0
07.12.17;20:00:00;1;1130;10698;0;2;0;10275;0;0;0;0;3;0;6472;0;0;0;0;4;0;6487;0;0;0;0;5;0;19623;2;0;0;0;0;0;6;0;15077;2;0;0;0;0;0;7;0;12882;0;0;0;0;8;0;12318;0;0;0;0;9;0;6340;0;0;0;0
07.12.17;19:55:00;1;857;10604;0;2;0;10275;0;0;0;0;3;0;6472;0;0;0;0;4;0;6487;0;0;0;0;5;0;19623;2;0;0;0;0;0;6;0;15077;2;0;0;0;0;0;7;0;12882;0;0;0;0;8;0;12318;0;0;0;0;9;0;6340;0;0;0;0
07.12.17;19:50:00;1;1202;10533;0;2;0;10275;0;0;0;0;3;0;6472;0;0;0;0;4;0;6487;0;0;0;0;5;0;19623;2;0;0;0;0;0;6;0;15077;2;0;0;0;0;0;7;0;12882;0;0;0;0;8;0;12318;0;0;0;0;9;0;6340;0;0;0;0
07.12.17;19:45:00;1;2481;10439;0;2;0;10275;0;0;0;0;3;0;6472;0;0;0;0;4;0;6487;0;0;0;0;5;0;19623;2;0;0;0;0;0;6;0;15077;2;0;0;0;0;0;7;0;12882;0;0;0;0;8;0;12318;0;0;0;0;9;0;6340;0;0;0;0
07.12.17;19:40:00;1;1546;10208;0;2;0;10275;0;0;0;0;3;0;6472;0;0;0;0;4;0;6487;0;0;0;0;5;0;19623;2;0;0;0;0;0;6;0;15077;2;0;0;0;0;0;7;0;12882;0;0;0;0;8;0;12318;0;0;0;0;9;0;6340;0;0;0;0
07.12.17;19:35:00;1;1655;10104;0;2;0;10275;0;0;0;0;3;0;6472;0;0;0;0;4;0;6487;0;0;0;0;5;0;19623;2;0;0;0;0;0;6;0;15077;2;0;0;0;0;0;7;0;12882;0;0;0;0;8;0;12318;0;0;0;0;9;0;6340;0;0;0;0
07.12.17;19:30:00;1;1524;9977;0;2;0;10275;0;0;0;0;3;0;6472;0;0;0;0;4;0;6487;0;0;0;0;5;0;19623;2;0;0;0;0;0;6;0;15077;2;0;0;0;0;0;7;0;12882;0;0;0;0;8;0;12318;0;0;0;0;9;0;6340;0;0;0;0
07.12.17;19:25:00;1;765;9874;0;2;0;10275;0;0;0;0;3;0;6472;0;0;0;0;4;0;6487;0;0;0;0;5;0;19623;2;0;0;0;0;0;6;0;15077;2;0;0;0;0;0;7;0;12882;0;0;0;0;8;0;12318;0;0;0;0;9;0;6340;0;0;0;0
07.12.17;19:20:00;1;2979;9810;0;2;0;10275;0;0;0;0;3;0;6472;0;0;0;0;4;0;6487;0;0;0;0;5;0;19623;2;0;0;0;0;0;6;0;15077;2;0;0;0;0;0;7;0;12882;0;0;0;0;8;0;12318;0;0;0;0;9;0;6340;0;0;0;0
07.12.17;19:15:00;1;2217;9545;0;2;0;10275;0;0;0;0;3;0;6472;0;0;0;0;4;0;6487;0;0;0;0;5;0;19623;2;0;0;0;0;0;6;0;15077;2;0;0;0;0;0;7;0;12882;0;0;0;0;8;0;12318;0;0;0;0;9;0;6340;0;0;0;0
07.12.17;19:10:00;1;856;9368;0;2;0;10275;0;0;0;0;3;0;6472;0;0;0;0;4;0;6487;0;0;0;0;5;0;19623;2;0;0;0;0;0;6;0;15077;2;0;0;0;0;0;7;0;12882;0;0;0;0;8;0;12318;0;0;0;0;9;0;6340;0;0;0;0
07.12.17;19:05:00;1;1439;9296;0;2;0;10275;0;0;0;0;3;0;6472;0;0;0;0;4;0;6487;0;0;0;0;5;0;19623;2;0;0;0;0;0;6;0;15077;2;0;0;0;0;0;7;0;12882;0;0;0;0;8;0;12318;0;0;0;0;9;0;6340;0;0;0;0
07.12.17;19:00:00;1;1130;9209;0;2;0;10275;0;0;0;0;3;0;6472;0;0;0;0;4;0;6487;0;0;0;0;5;0;19623;2;0;0;0;0;0;6;0;15077;2;0;0;0;0;0;7;0;12882;0;0;0;0;8;0;12318;0;0;0;0;9;0;6340;0;0;0;0
07.12.17;18:55:00;1;462;9145;0;2;0;10275;0;0;0;0;3;0;6472;0;0;0;0;4;0;6487;0;0;0;0;5;0;19623;2;0;0;0;0;0;6;0;15077;2;0;0;0;0;0;7;0;12882;0;0;0;0;8;0;12318;0;0;0;0;9;0;6340;0;0;0;0
07.12.17;18:50:00;1;1026;9097;0;2;0;10275;0;0;0;0;3;0;6472;0;0;0;0;4;0;6487;0;0;0;0;5;0;19623;2;0;0;0;0;0;6;0;15077;2;0;0;0;0;0;7;0;12882;0;0;0;0;8;0;12318;0;0;0;0;9;0;6340;0;0;0;0
07.12.17;18:45:00;1;492;9045;0;2;0;10275;0;0;0;0;3;0;6472;0;0;0;0;4;0;6487;0;0;0;0;5;0;19623;2;0;0;0;0;0;6;0;15077;2;0;0;0;0;0;7;0;12882;0;0;0;0;8;0;12318;0;0;0;0;9;0;6340;0;0;0;0
07.12.17;18:40:00;1;502;8981;0;2;0;10275;0;0;0;0;3;0;6472;0;0;0;0;4;0;6487;0;0;0;0;5;0;19623;2;0;0;0;0;0;6;0;15077;2;0;0;0;0;0;7;0;12882;0;0;0;0;8;0;12318;0;0;0;0;9;0;6340;0;0;0;0
07.12.17;18:35:00;1;1011;8935;0;2;0;10275;0;0;0;0;3;0;6472;0;0;0;0;4;0;6487;0;0;0;0;5;0;19623;2;0;0;0;0;0;6;0;15077;2;0;0;0;0;0;7;0;12882;0;0;0;0;8;0;12318;0;0;0;0;9;0;6340;0;0;0;0
07.12.17;18:30:00;1;1251;8857;0;2;0;10275;0;0;0;0;3;0;6472;0;0;0;0;4;0;6487;0;0;0;0;5;0;19623;2;0;0;0;0;0;6;0;15077;2;0;0;0;0;0;7;0;12882;0;0;0;0;8;0;12318;0;0;0;0;9;0;6340;0;0;0;0
07.12.17;18:25:00;1;657;8779;0;2;0;10275;0;0;0;0;3;0;6472;0;0;0;0;4;0;6487;0;0;0;0;5;0;19623;2;0;0;0;0;0;6;0;15077;2;0;0;0;0;0;7;0;12882;0;0;0;0;8;0;12318;0;0;0;0;9;0;6340;0;0;0;0
07.12.17;18:20:00;1;1258;8716;0;2;0;10275;0;0;0;0;3;0;6472;0;0;0;0;4;0;6487;0;0;0;0;5;0;19623;2;0;0;0;0;0;6;0;15077;2;0;0;0;0;0;7;0;12882;0;0;0;0;8;0;12318;0;0;0;0;9;0;6340;0;0;0;0
07.12.17;18:15:00;1;983;8646;0;2;0;10275;0;0;0;0;3;0;6472;0;0;0;0;4;0;6487;0;0;0;0;5;0;19623;2;0;0;0;0;0;6;0;15077;2;0;0;0;0;0;7;0;12882;0;0;0;0;8;0;12318;0;0;0;0;9;0;6340;0;0;0;0
07.12.17;18:10:00;1;670;8566;0;2;0;10275;0;0;0;0;3;0;6472;0;0;0;0;4;0;6487;0;0;0;0;5;0;19623;2;0;0;0;0;0;6;0;15077;2;0;0;0;0;0;7;0;12882;0;0;0;0;8;0;12318;0;0;0;0;9;0;6340;0;0;0;0
07.12.17;18:05:00;1;1385;8511;0;2;0;10275;0;0;0;0;3;0;6472;0;0;0;0;4;0;6487;0;0;0;0;5;0;19623;2;0;0;0;0;0;6;0;15077;2;0;0;0;0;0;7;0;12882;0;0;0;0;8;0;12318;0;0;0;0;9;0;6340;0;0;0;0
07.12.17;18:00:00;1;674;8428;0;2;0;10275;0;0;0;0;3;0;6472;0;0;0;0;4;0;6487;0;0;0;0;5;0;19623;2;0;0;0;0;0;6;0;15077;2;0;0;0;0;0;7;0;12882;0;0;0;0;8;0;12318;0;0;0;0;9;0;6340;0;0;0;0
07.12.17;17:55:00;1;628;8349;0;2;0;10275;0;0;0;0;3;0;6472;0;0;0;0;4;0;6487;0;0;0;0;5;0;19623;2;0;0;0;0;0;6;0;15077;2;0;0;0;0;0;7;0;12882;0;0;0;0;8;0;12318;0;0;0;0;9;0;6340;0;0;0;0
07.12.17;17:50:00;1;994;8297;0;2;0;10275;0;0;0;0;3;0;6472;0;0;0;0;4;0;6487;0;0;0;0;5;0;19623;2;0;0;0;0;0;6;0;15077;2;0;0;0;0;0;7;0;12882;0;0;0;0;8;0;12318;0;0;0;0;9;0;6340;0;0;0;0
07.12.17;17:45:00;1;2123;8220;0;2;0;10275;0;0;0;0;3;0;6472;0;0;0;0;4;0;6487;0;0;0;0;5;0;19623;2;0;0;0;0;0;6;0;15077;2;0;0;0;0;0;7;0;12882;0;0;0;0;8;0;12318;0;0;0;0;9;0;6340;0;0;0;0
07.12.17;17:40:00;1;2766;8029;0;2;0;10275;0;0;0;0;3;0;6472;0;0;0;0;4;0;6487;0;0;0;0;5;0;19623;2;0;0;0;0;0;6;0;15077;2;0;0;0;0;0;7;0;12882;0;0;0;0;8;0;12318;0;0;0;0;9;0;6340;0;0;0;0
07.12.17;17:35:00;1;2969;7783;0;2;0;10275;0;0;0;0;3;0;6472;0;0;0;0;4;0;6487;0;0;0;0;5;0;19623;2;0;0;0;0;0;6;0;15077;2;0;0;0;0;0;7;0;12882;0;0;0;0;8;0;12318;0;0;0;0;9;0;6340;0;0;0;0
07.12.17;17:30:00;1;4018;7523;0;2;0;10275;0;0;0;0;3;0;6472;0;0;0;0;4;0;6487;0;0;0;0;5;0;19623;2;0;0;0;0;0;6;0;15077;2;0;0;0;0;0;7;0;12882;0;0;0;0;8;0;12318;0;0;0;0;9;0;6340;0;0;0;0
07.12.17;17:25:00;1;2869;7179;0;2;0;10275;0;0;0;0;3;0;6472;0;0;0;0;4;0;6487;0;0;0;0;5;0;19623;2;0;0;0;0;0;6;0;15077;2;0;0;0;0;0;7;0;12882;0;0;0;0;8;0;12318;0;0;0;0;9;0;6340;0;0;0;0
07.12.17;17:20:00;1;3853;6932;0;2;0;10275;0;0;0;0;3;0;6472;0;0;0;0;4;0;6487;0;0;0;0;5;0;19623;2;0;0;0;0;0;6;0;15077;2;0;0;0;0;0;7;0;12882;0;0;0;0;8;0;12318;0;0;0;0;9;0;6340;0;0;0;0
07.12.17;17:15:00;1;2544;6659;0;2;0;10275;0;0;0;0;3;0;6472;0;0;0;0;4;0;6487;0;0;0;0;5;0;19623;2;0;0;0;0;0;6;0;15077;2;0;0;0;0;0;7;0;12882;0;0;0;0;8;0;12318;0;0;0;0;9;0;6340;0;0;0;0
07.12.17;17:10:00;1;1050;6446;0;2;0;10275;0;0;0;0;3;0;6472;0;0;0;0;4;0;6487;0;0;0;0;5;0;19623;2;0;0;0;0;0;6;0;15077;2;0;0;0;0;0;7;0;12882;0;0;0;0;8;0;12318;0;0;0;0;9;0;6340;0;0;0;0
07.12.17;17:05:00;1;963;6387;0;2;0;10275;0;0;0;0;3;0;6472;0;0;0;0;4;0;6487;0;0;0;0;5;0;19623;2;0;0;0;0;0;6;0;15077;2;0;0;0;0;0;7;0;12882;0;0;0;0;8;0;12318;0;0;0;0;9;0;6340;0;0;0;0
07.12.17;17:00:00;1;273;6336;0;2;0;10275;0;0;0;0;3;0;6472;0;0;0;0;4;0;6487;0;0;0;0;5;0;19623;2;0;0;0;0;0;6;0;15077;2;0;0;0;0;0;7;0;12882;0;0;0;0;8;0;12318;0;0;0;0;9;0;6340;0;0;0;0
07.12.17;16:55:00;1;604;6313;0;2;0;10275;0;0;0;0;3;0;6472;0;0;0;0;4;0;6487;0;0;0;0;5;0;19623;2;0;0;0;0;0;6;0;15077;2;0;0;0;0;0;7;0;12882;0;0;0;0;8;0;12318;0;0;0;0;9;0;6340;0;0;0;0
07.12.17;16:50:00;1;870;6260;0;2;0;10275;0;0;0;0;3;0;6472;0;0;0;0;4;0;6487;0;0;0;0;5;0;19623;2;0;0;0;0;0;6;0;15077;2;0;0;0;0;0;7;0;12882;0;0;0;0;8;0;12318;0;0;0;0;9;0;6340;0;0;0;0
07.12.17;16:45:00;1;335;6216;0;2;0;10275;0;0;0;0;3;0;6472;0;0;42;2;4;0;6487;0;0;0;0;5;0;19623;2;0;0;0;0;0;6;0;15077;2;0;0;0;0;0;7;0;12882;0;0;0;0;8;0;12318;0;0;0;0;9;0;6340;0;0;0;0
07.12.17;16:40:00;1;315;6166;0;2;0;10275;6;0;280;12;3;0;6472;6;0;307;14;4;0;6487;0;0;0;0;5;0;19623;2;0;0;0;0;0;6;0;15077;2;0;0;0;0;0;7;0;12882;0;0;0;0;8;0;12318;0;0;0;0;9;0;6340;0;0;0;0
07.12.17;16:35:00;1;630;6140;0;2;0;10275;6;0;325;12;3;0;6472;6;0;387;15;4;0;6487;2;0;78;10;5;0;19623;2;0;0;30;29;3;6;0;15077;0;0;0;0;0;0;7;0;12882;0;0;0;0;8;0;12318;0;0;0;0;9;0;6340;0;0;0;0
07.12.17;16:30:00;1;590;6090;0;2;0;10275;6;0;360;13;3;0;6472;6;0;438;15;4;0;6487;1;0;114;10;5;0;19623;1;0;0;334;335;22;6;0;15077;2;4;3;258;264;17;7;0;12882;0;0;173;10;8;0;12318;0;0;175;10;9;0;6340;0;0;184;7
07.12.17;16:25:00;1;237;6048;0;2;0;10275;6;0;383;13;3;0;6472;3;2;435;15;4;0;6487;1;0;152;11;5;0;19623;26;0;0;409;471;23;6;0;15077;23;4;4;479;257;21;7;0;12882;6;0;322;16;8;0;12318;6;0;324;15;9;0;6340;6;0;331;11
07.12.17;16:20:00;1;573;6028;0;2;0;10275;6;0;401;13;3;1;6472;6;3;483;16;4;0;6487;1;0;190;11;5;6;19623;26;0;1;418;639;23;6;0;15077;23;6;3;181;571;21;7;0;12882;6;0;389;16;8;0;12318;6;0;383;16;9;0;6340;6;1;390;11
07.12.17;16:15:00;1;653;5985;0;2;1;10275;6;7;402;14;3;2;6472;6;5;499;16;4;0;6487;1;0;211;12;5;6;19623;4;0;0;426;688;24;6;0;15077;23;5;4;268;591;22;7;0;12882;6;2;422;17;8;0;12318;3;2;411;16;9;0;6340;6;0;454;12
07.12.17;16:10:00;1;585;5947;0;2;3;10275;6;8;414;15;3;2;6472;6;10;492;16;4;0;6487;3;0;220;12;5;78;19622;4;15;18;378;599;25;6;35;15077;1;14;21;514;488;23;7;1;12882;6;4;449;17;8;1;12318;6;4;461;16;9;1;6340;6;1;498;12
07.12.17;16:05:00;1;195;5902;0;2;24;10275;6;43;387;15;3;2;6472;6;8;530;17;4;0;6487;3;0;200;13;5;105;19615;4;36;31;378;599;25;6;68;15073;4;26;29;462;432;24;7;1;12882;6;9;483;18;8;3;12318;6;9;482;17;9;0;6340;6;0;556;12
07.12.17;16:00:00;1;592;5885;0;2;60;10273;4;94;376;16;3;4;6471;6;9;544;17;4;10;6487;3;10;199;13;5;140;19606;4;52;48;378;599;25;6;91;15068;4;40;47;462;432;24;7;34;12882;6;63;389;18;8;28;12318;6;51;428;17;9;3;6340;4;12;523;12
07.12.17;15:55:00;1;241;5844;0;2;86;10268;4;119;364;17;3;7;6471;4;13;545;18;4;26;6486;3;27;198;13;5;178;19594;4;70;63;378;599;25;6;114;15060;4;46;51;462;432;24;7;73;12879;4;106;409;18;8;65;12315;4;101;458;18;9;7;6340;3;11;557;13
07.12.17;15:50:00;1;197;5799;0;2;125;10261;4;160;382;17;3;64;6470;4;104;476;18;4;50;6484;3;51;198;13;5;215;19579;4;98;85;378;599;25;6;148;15050;4;73;77;462;432;24;7;123;12873;4;157;438;19;8;104;12310;4;139;427;18;9;16;6339;6;24;540;13
07.12.17;15:45:00;1;277;5763;0;2;224;10251;4;263;388;18;3;99;6465;4;137;477;19;4;100;6480;3;104;219;13;5;263;19560;4;119;106;378;599;25;6;182;15038;4;105;116;462;455;24;7;213;12863;4;260;483;19;8;147;12301;4;183;445;18;9;40;6338;6;59;533;13
07.12.17;15:40:00;1;258;5721;0;2;614;10232;4;668;395;19;3;287;6457;4;329;442;19;4;167;6472;5;174;228;14;5;379;19538;4;177;157;390;599;26;6;383;15022;4;173;231;572;599;24;7;539;12846;4;590;478;19;8;223;12290;4;253;386;18;9;86;6335;4;119;488;14
07.12.17;15:35:00;1;636;5676;0;2;768;10182;4;825;394;20;3;410;6433;4;454;442;20;4;215;6458;5;224;228;14;5;613;19506;4;295;259;441;599;26;6;675;14989;4;337;375;618;585;24;7;858;12802;4;910;455;20;8;471;12271;4;509;395;19;9;110;6328;4;143;525;14
07.12.17;15:30:00;1;659;5635;0;2;910;10118;4;974;398;21;3;490;6399;4;542;443;20;4;248;6440;5;258;230;14;5;1004;19450;4;444;466;413;707;26;6;859;14931;4;417;422;614;593;24;7;1124;12730;4;1192;449;20;8;749;12231;4;806;472;19;9;129;6318;4;167;552;15
07.12.17;15:25:00;1;737;5590;0;2;1046;10043;4;1116;400;21;3;563;6359;4;616;443;20;4;277;6419;5;288;237;14;5;1060;19368;4;494;481;438;715;26;6;959;14859;4;485;491;628;601;25;7;1190;12638;4;1270;501;20;8;931;12170;4;985;455;19;9;147;6308;4;180;524;15
07.12.17;15:20:00;1;263;5543;0;2;1193;9956;4;1267;400;22;3;641;6312;4;698;451;21;4;313;6396;5;326;223;14;5;1427;19283;4;704;636;395;716;26;6;1123;14781;4;552;565;618;587;25;7;1629;12536;4;1712;488;20;8;1284;12092;4;1352;434;20;9;145;6295;4;175;405;15
07.12.17;15:15:00;1;682;5506;0;2;1311;9857;4;1389;397;23;3;709;6259;4;769;446;21;4;356;6370;5;371;237;15;5;1642;19164;4;799;756;404;728;27;6;1331;14687;4;688;682;620;594;25;7;2011;12407;4;2115;516;21;8;1467;11988;4;1544;467;20;9;194;6283;4;223;357;16
07.12.17;15:10:00;1;730;5466;0;2;1446;9748;4;1529;398;23;3;785;6200;4;844;453;22;4;397;6340;5;413;243;15;5;1639;19029;4;824;724;419;701;27;6;1430;14577;4;728;723;622;570;25;7;1925;12238;4;2021;486;21;8;1792;11863;4;1882;494;20;9;301;6267;4;335;393;16
07.12.17;15:05:00;1;1062;5410;0;2;1552;9628;4;1646;423;24;3;812;6134;4;877;460;22;4;424;6308;5;442;244;15;5;1481;18886;4;769;639;403;678;27;6;1473;14464;4;727;736;620;588;25;7;1616;12078;4;1700;509;21;8;1745;11718;4;1833;482;20;9;563;6242;4;605;407;17
07.12.17;15:00:00;1;269;5364;0;2;1729;9497;4;1826;413;25;3;927;6067;4;996;481;22;4;469;6272;5;488;242;15;5;2095;18753;4;1137;895;427;713;27;6;1721;14354;4;863;864;624;598;25;7;1613;11941;4;1707;535;21;8;1135;11572;4;1207;498;21;9;617;6194;4;665;432;17
07.12.17;14:55:00;1;697;5341;0;2;1821;9354;4;1924;422;25;3;1032;5990;4;1107;496;23;4;491;6233;5;511;239;16;5;2575;18575;4;1365;1123;438;719;28;6;1961;14214;4;990;994;617;592;25;7;1202;11811;4;1285;548;22;8;889;11477;4;956;537;21;9;465;6144;4;507;431;18
07.12.17;14:50:00;1;196;5296;0;2;1916;9203;4;2020;416;26;3;1136;5904;4;1214;515;23;4;547;6192;5;570;244;16;5;2773;18359;4;1462;1212;443;712;28;6;2112;14050;4;1095;1063;616;592;25;7;1051;11709;4;1118;521;22;8;1196;11400;4;1262;496;21;9;620;6104;4;672;459;18
07.12.17;14:45:00;1;237;5280;0;2;1945;9043;4;2054;418;26;3;1232;5810;4;1318;532;24;4;576;6147;5;600;239;16;5;2926;18132;4;1582;1273;440;731;28;6;2260;13875;4;1161;1142;617;592;26;7;1984;11619;4;2088;527;22;8;2126;11300;4;2233;480;22;9;843;6053;4;906;543;19
07.12.17;14:40:00;1;632;5237;0;2;2088;8881;4;2199;418;26;3;1335;5707;4;1422;537;24;4;619;6099;5;645;243;16;5;3149;17885;4;1681;1387;447;709;28;6;2402;13686;4;1261;1235;617;587;26;7;1398;11451;4;1479;492;23;8;1220;11119;4;1290;480;22;9;611;5982;4;661;557;19
07.12.17;14:35:00;1;312;5210;0;2;1983;8707;4;2093;420;27;3;1259;5596;4;1346;529;24;4;651;6047;5;678;245;17;5;3313;17622;4;1756;1457;443;720;28;6;2510;13485;4;1298;1268;619;588;26;7;1935;11338;4;2040;513;23;8;1680;11017;4;1754;457;23;9;758;5929;4;828;522;20
07.12.17;14:30:00;1;204;5188;0;2;2172;8539;4;2292;420;27;3;1347;5489;4;1440;536;24;4;721;5993;5;750;242;17;5;3446;17345;4;1862;1514;445;710;28;6;2637;13275;4;1368;1332;615;590;26;7;1820;11156;4;1917;513;24;8;945;10879;4;1014;529;23;9;542;5867;4;593;530;20
07.12.17;14:25:00;1;220;5170;0;2;2284;8358;4;2409;414;27;3;1456;5376;4;1549;528;24;4;768;5933;5;800;250;17;5;3654;17057;4;1971;1611;445;711;28;6;2787;13054;4;1433;1405;618;589;26;7;2256;11008;4;2371;524;24;8;1524;10802;4;1608;531;23;9;868;5822;4;939;533;21
07.12.17;14:20:00;1;253;5123;0;2;2359;8168;4;2483;416;28;3;1511;5255;4;1607;528;24;4;802;5869;5;835;246;17;5;3808;16751;4;2063;1682;443;703;29;6;2872;12821;4;1476;1440;620;594;26;7;2762;10817;4;2887;491;24;8;1569;10677;4;1662;496;24;9;762;5751;4;821;549;21
07.12.17;14:15:00;1;305;5100;0;2;2386;7971;4;2515;414;28;3;1526;5129;4;1625;533;24;4;810;5802;5;844;242;17;5;3935;16434;4;2137;1737;443;709;29;6;3017;12579;4;1558;1529;615;589;26;7;2274;10590;4;2392;488;25;8;2076;10549;4;2197;493;24;9;1350;5687;4;1442;530;22
07.12.17;14:10:00;1;607;5075;0;2;2447;7771;4;2576;417;28;3;1564;5002;4;1661;529;24;4;846;5734;5;881;244;18;5;4109;16104;4;2224;1820;439;711;29;6;3176;12328;4;1633;1612;614;589;26;7;2361;10394;4;2478;473;25;8;2607;10378;4;2732;486;24;9;1097;5577;4;1198;551;23
07.12.17;14:05:00;1;201;5028;0;2;2553;7569;4;2687;419;28;3;1634;4872;4;1737;531;25;4;891;5664;5;928;253;18;5;4313;15759;4;2319;1913;443;713;29;6;3287;12063;4;1693;1654;614;588;26;7;3734;10189;4;3907;481;25;8;3680;10156;4;3851;483;25;9;1727;5485;4;1831;542;23